Regional Weather Roundup
Issued by NWS Sterling, VA

Home | Current Version | Previous Version | Graphics & Text | Print | Product List | Glossary On
Versions: 1 2 3 4 5 6 7 8 9 10 11 12 13 14 15 16 17 18 19 20 21 22 23 24 25 26 27
000
ASUS41 KLWX 261311
RWRLWX

REGIONAL WEATHER ROUNDUP
NATIONAL WEATHER SERVICE BALTIMORE MD/WASHINGTON DC
900 AM EDT THU APR 26 2018

Note: "FAIR" indicates few or no clouds below 12,000 feet
with no significant weather and/or obstructions to visibility.
 TC=TEMPERATURE CELSIUS

 * =Non NWS site. Station does not report precipitation (e.g. rain,
    snow, etc.), thunder, or fog.

DCZ001-MDZ009-015-VAZ040>042-051-053>054-261400-
WASHINGTON METRO

CITY           SKY/WX    TMP DP  RH WIND       PRES   REMARKS
WASHINGTON NAT PTSUNNY   55  37  50 W13G21    29.88R
DULLES         PTSUNNY   52  39  61 NW21G31   29.86F
ANDREWS AFB    FAIR      54  38  55 W13       29.87R
FT BELVOIR     FAIR      55  37  51 NW15      29.89R
QUANTICO       PTSUNNY   57  40  52 NW10      29.90R
COLLEGE PARK*  FAIR      52  36  54 W7G16     29.87S
LEESBURG*      FAIR      54  41  62 NW10G18   29.90R
MANASSAS*      FAIR      54  38  54 CALM      29.91R
GAITHERSBURG*  FAIR      52  38  58 NW13G20   29.88R

$$

MDZ006>007-011-014-261400-
BALTIMORE METRO

CITY           SKY/WX    TMP DP  RH WIND       PRES   REMARKS
BWI AIRPORT    PTSUNNY   55  40  56 W14G22    29.84R
MD SCIENCE CTR   N/A     55  37  50 MISG      29.86R
MARTIN STATE   MOSUNNY   55  43  62 W16       29.85R
ANNAPOLIS      FAIR      57  39  51 NW6       29.86R
FORT MEADE*    FAIR      54  39  58 W13G18    29.88S

$$

MDZ012-015-019>023-261400-
MARYLAND EASTERN SHORE

CITY           SKY/WX    TMP DP  RH WIND       PRES   REMARKS
OCEAN CITY     FAIR      55  43  63 NW16G25   29.84R
SALISBURY      FAIR      55  42  61 NW15G23   29.85R
BAY BRIDGE AP* FAIR      54  41  62 W7        29.86S
CAMBRIDGE*     SUNNY     55  39  54 NW14G20   29.87R
EASTON*        MOSUNNY   55  39  54 NW16G22   29.89R

$$

MDZ017>025-261400-
SOUTHERN MARYLAND

CITY           SKY/WX    TMP DP  RH WIND       PRES   REMARKS
PATUXENT RIVER FAIR      58  40  51 NW12      29.87R
ST INIGOES     FAIR      55  40  56 NW9G17    29.86S
LEONARDTOWN*   FAIR      54  37  54 NW8G18    29.89R

$$

MDZ003>005-261400-
NORTH CENTRAL MARYLAND

CITY           SKY/WX    TMP DP  RH WIND       PRES   REMARKS
FREDERICK*     SUNNY     54  36  50 W13       29.91R
HAGERSTOWN APT FAIR      51  37  58 NW9       29.87R
WESTMINSTER*   FAIR      52  39  62 NW7       29.85R

$$

MDZ501>502-261400-
WESTERN MARYLAND

CITY           SKY/WX    TMP DP  RH WIND       PRES   REMARKS
OAKLAND*       CLOUDY    34  34 100 W6        29.89R WCI  29
CUMBERLAND*    FAIR      52  36  54 N7        29.95R

$$

VAZ025>031-261400-
SHENANDOAH VALLEY

CITY           SKY/WX    TMP DP  RH WIND       PRES   REMARKS
WINCHESTER*    FAIR      50  36  57 NW12      29.92R
FRONT ROYAL*   FAIR      54  36  50 NW6G16    29.89R
LURAY*         FAIR      54  37  54 SW7       29.91R
NEW MARKET*    FAIR      52  41  67 S3        29.90S
STAUNTON*      FAIR      50  40  67 CALM      29.93S
WAYNESBORO*    FAIR      52  38  60 W5        29.91S

$$

WVZ021-048>050-054>055-261400-
EASTERN WEST VIRGINIA PANHANDLE

CITY           SKY/WX    TMP DP  RH WIND       PRES   REMARKS
MARTINSBURG    FAIR      51  36  56 NW3       29.88R
PETERSBURG*    FAIR      51  38  61 N9        29.93R HAZE

$$

VAZ036>039-050-261400-
CENTRAL FOOTHILLS

CITY           SKY/WX    TMP DP  RH WIND       PRES   REMARKS
CHARLOTTESVILL FAIR      57  38  48 VRB3      29.88S
CULPEPER*      FAIR      56  36  46 CALM      29.91R
ORANGE*        FAIR      55  37  50 CALM      29.89R
GORDONSVILLE*  FAIR      57  40  52 NW6       29.89R
WARRENTON*     FAIR      56  36  46 NW7       29.90R

$$

VAZ055>057-261400-
NORTH AND CENTRAL PIEDMONT

CITY           SKY/WX    TMP DP  RH WIND       PRES   REMARKS
FREDERICKSBRG* FAIR      57  41  55 NW8       29.89R
STAFFORD*      FAIR      57  40  54 NW10      29.93S

$$

NCZ024-NYZ072-PAZ021-071-VAZ022-071-261400-
OTHER REGIONAL OBSERVATIONS

CITY           SKY/WX    TMP DP  RH WIND       PRES   REMARKS
NEW YORK CITY  FAIR      57  43  59 VRB7G17   29.72R
PHILADELPHIA   FAIR      53  38  56 NW17      29.79R
PITTSBURGH     FAIR      44  34  67 NW6       29.93R
ROANOKE        FAIR      55  39  54 NW7       29.93S
RICHMOND       CLOUDY    57  43  59 N9        29.89R
RALEIGH        PTSUNNY   58  52  80 N6        29.89S

$$

ANZ530>537-261400-
MARINE OBSERVATIONS

STATION/POSITION TIME  TEMP    WIND        PRES
                       AIR SEA DIR/SP/G
                 (UTC) (F)     (DEG/KT/KT) (MB)
THOMAS PT LIGHT  1200   51 54  300/ 13/ 15 1011.7R
BALT KEY BRIDGE  1236   52     290/ 13/ 15 1010.6R
COVE POINT       1236   53     330/ 11/ 13 1012.2R
LEWISETTA        1236   55 56  330/ 10/ 17 1011.6R
SOLOMONS ISLAND  1236   54 54  300/  8/ 12 1011.2R
PINEY POINT      1248          330/ 21/ 22   N/A

$$





USA.gov is the U.S. government's official web portal to all federal, state and local government web resources and services.